星链-34815 (STARLINK-34815)

导读

STARLINK-34815是美国SpaceX公司星链计划中的一颗卫星,于2025年8月4日发射升空。星链项目旨在构建全球卫星互联网星座,为全球偏远及网络欠发达地区提供高速低延迟的互联网接入服务,该卫星的入轨进一步扩充了星链星座的规模,提升了星座服务覆盖能力与网络稳定性。

Basic Information
目录编号:
65099
目录名称:
STARLINK-34815
国际标识:
2025-167X
轨道中心:
EARTH
卫星名称:
星链-34815
卫星全名:
星链-34815 (STARLINK-34815)
卫星状态:
在轨 (已飞行405 天)
发射日期:
2025-08-04 UTC
国别 :
美国 (US)
星等 :
--
This satellite is enrolled in the Space Conjunction Data Service (SCDS) and the current flight risk assessment level is: High Risk
Orbit Information
数据来源 国际轨道数据
星历时间: 2026-09-12T11:12:04+0800
23小时前
查看轨道信息
半长轴: 6840.826km
偏心率: 0.0001691
轨道倾角: 53.158°
近地点辐角 136.110°
升交点赤经 236.495°
平近点角 224.004°
近地点: 461.532km
远地点: 463.846km
周期: 93.847分钟
每日圈数: 15.344051
Detailed Information
固有亮度:
5
最大亮度:
2.5
卫星平台:
Starlink V1.0
覆盖范围:
全球
运营商:
太空探索技术公司
运营商所在国:
美国
制造商(研发单位):
太空探索技术公司
制造商所在国:
美国
使用方式:
暂无
Satellite Introduction
Starlink 计划是 SpaceX 推出的全球卫星互联网项目,通过发射低轨道卫星,为全球尤其是偏远地区提供高速、低延迟的互联网服务。自 2019 年起,Starlink 已部署数千颗卫星,旨在缩小全球数字鸿沟,推动互联网普及。该项目还为军事、航空等行业提供通信支持,带来广泛经济效益。
2D Orbit Map
3D Orbit Map
Orbit Altitude Analysis Chart
Orbit Inclination Analysis Chart
Orbit Comprehensive Analysis Chart
View Comprehensive Chart
Conjunction Data List
Event ID Objects TCA Miss Dist (km) Collision Risk Probability Collision Risk Index (CRI) Action
CDM_260915-011606-509906-602821
2026-09-15T
01:16:03+0000
0.266 km
中距离
4.561288E-4 高风险 0.88
CDM_260914-234206-509906-602821
2026-09-14T
23:42:16+0000
1.891 km
极远距离
2.196744E-6 低风险 0.42
CDM_260915-024906-509906-602821
2026-09-15T
02:49:50+0000
2.007 km
极远距离
1.889668E-6 低风险 0.41
Miss Distance Evolution Trend with All Objects
Collision Probability Evolution Trend with All Objects